Printer-friendly version
Follow the MPC on Twitter Follow the MPC on Facebook The MPC blog
Minor Planet Center

MPEC 2006-P35 : 2005 TU45

The following Minor Planet Electronic Circular may be linked-to from your own Web pages, but must not otherwise be redistributed electronically.

A form allowing access to any MPEC is at the bottom of this page.


Read MPEC 2006-P34 Read MPEC 2006-P36


M.P.E.C. 2006-P35                                Issued 2006 Aug.  9, 15:34 UT

     The Minor Planet Electronic Circulars contain information on unusual
         minor planets and routine data on comets.  They are published
   on behalf of Commission 20 of the International Astronomical Union by the
          Minor Planet Center, Smithsonian Astrophysical Observatory,
                          Cambridge, MA 02138, U.S.A.

                  Supported in part by the Brinson Foundation
                  Supported in part by the TABASGO Foundation
             Prepared using the Tamkin Foundation Computer Network

                              MPC@CFA.HARVARD.EDU
          URL http://cfa-www.harvard.edu/iau/mpc.html  ISSN 1523-6714

                                   2005 TU45

                           Revision to MPEC 2005-T61

Additional Observations:
     K05T45U 2C2006 06 02.60535901 05 46.578-14 31 27.27                EP035568
     K05T45U 2C2006 06 02.60836201 05 46.804-14 31 27.49                EP035568
     K05T45U 2C2006 06 02.61146601 05 47.036-14 31 27.45         22.9 R EP035568
     K05T45U 2C2006 06 02.61447001 05 47.264-14 31 27.74                EP035568
     K05T45U 2C2006 06 02.61746501 05 47.469-14 31 27.88                EP035568
     K05T45U 2C2006 07 21.61223701 53 27.315-18 10 49.32         21.9 R EP035568
     K05T45U 2C2006 07 21.61630801 53 27.461-18 10 51.48         22.0 R EP035568
     K05T45U 2C2006 07 21.62034301 53 27.606-18 10 53.59         22.0 R EP035568
     K05T45U 2C2006 07 26.54943901 56 15.435-18 56 35.39         22.5 R EP035568
     K05T45U 2C2006 07 26.55217601 56 15.518-18 56 37.07         22.1 R EP035568
     K05T45U 2C2006 07 26.55487601 56 15.593-18 56 38.66         22.0 R EP035568

Observer details:
568 Mauna Kea.  Observers F. Bernardi, R. Zelman [queue observer].  Measurers
    D. J. Tholen, F. Bernardi.  2.24-m University of Hawaii reflector + 2048
    CCD, 3.6-m Canada-France-Hawaii Telescope + MegaCam.

Orbital elements:
2005 TU45                                                Earth MOID = 0.2545 AU
Epoch 2006 Sept. 22.0 TT = JDT 2454000.5                MPC
M 158.19091              (2000.0)            P               Q
n   0.35537101     Peri.   76.88305     -0.85324791     +0.31891156
a   1.9740041      Node   120.28001     -0.40108763     -0.90699857
e   0.4956864      Incl.   28.54298     +0.33331173     -0.27504367
P   2.77           H   16.9           G   0.15           U   1
Residuals in seconds of arc
051005 568  0.0   0.0     051007 568  0.1-  0.0     051105 568  0.1+  0.1-
051005 568  0.1+  0.0     051007 568  0.0   0.0     051105 568  0.1+  0.0
051005 568  0.0   0.0     051007 568  0.0   0.0     051105 568  0.0   0.1-
051005 568  0.0   0.0     051007 568  0.0   0.0     051111 568  0.2+  0.0
051005 568  0.2+  0.0     051007 568  0.0   0.0     051111 568  0.0   0.2+
051005 568  0.0   0.0     051007 304  0.0   0.0     051112 568  0.0   0.0
051005 568  0.0   0.0     051007 304  0.0   0.0     051112 568  0.1-  0.2+
051005 568  0.0   0.1-    051007 304  0.2-  0.0     051112 568  0.1-  0.2+
051005 568  0.1+  0.1-    051010 568  0.1+  0.0     051112 568  0.1+  0.0
051005 568  0.0   0.2-    051010 568  0.0   0.0     060602 568  0.0   0.0
051005 568  0.1-  0.0     051010 568  0.1+  0.1+    060602 568  0.0   0.1-
051005 568  0.1+  0.2-    051010 568  0.0   0.0     060602 568  0.0   0.0
051005 568  0.1+  0.0     051010 568  0.0   0.0     060602 568  0.1+  0.1-
051005 568  0.1+  0.0     051010 568  0.1-  0.0     060602 568  0.2-  0.2-
051006 G96  0.6+  0.2+    051010 568  0.0   0.0     060721 568  0.0   0.1+
051006 G96  0.5-  0.1-    051010 568  0.1-  0.0     060721 568  0.0   0.1+
051006 G96  0.1+  0.2+    051012 568  0.1-  0.0     060721 568  0.0   0.1+
051006 G96  0.4+  0.4+    051012 568  0.1-  0.0     060726 568  0.0   0.0
051007 568  0.0   0.0     051012 568  0.1-  0.1-    060726 568  0.0   0.1-
051007 568  0.0   0.0     051012 568  0.2-  0.2+    060726 568  0.1-  0.1-
051007 568  0.1-  0.1+    051012 568  0.2-  0.0

Ephemeris:
2005 TU45                a,e,i = 1.97, 0.50, 29                  q = 0.9955
Date    TT    R. A. (2000) Decl.     Delta      r     Elong.  Phase     V
2006 08 03    01 59.53   -20 13.9    2.368    2.848   107.8    19.8    22.0
2006 08 13    02 01.94   -22 12.0    2.279    2.866   115.6    18.6    21.9
2006 08 23    02 01.79   -24 23.3    2.202    2.882   123.1    17.1    21.8
2006 09 02    01 58.85   -26 41.8    2.141    2.897   130.2    15.4    21.7
2006 09 12    01 53.07   -28 58.8    2.099    2.910   136.1    13.9    21.6
2006 09 22    01 44.64   -31 04.0    2.080    2.921   140.0    12.8    21.6
2006 10 02    01 34.10   -32 46.5    2.085    2.930   140.9    12.4    21.6
2006 10 12    01 22.42   -33 57.4    2.114    2.938   138.7    13.0    21.6
2006 10 22    01 10.71   -34 32.0    2.166    2.944   133.8    14.1    21.7
2006 11 01    01 00.11   -34 29.7    2.239    2.949   127.3    15.5    21.9
2006 11 11    00 51.52   -33 54.5    2.330    2.951   119.9    16.9    22.0

Timothy B. Spahr             (C) Copyright 2006 MPC           M.P.E.C. 2006-P35

Read MPEC 2006-P34 Read MPEC 2006-P36


MPEC number:

Enter an MPEC number in one of the following forms:

  • 1997-B01 (the full form)
  • J97B01 (the packed version of the full form)
  • B01 (the abbreviated form)

Valid HTML 4.01!